Location: ????????
(54.9045°N, 39.1041°E)
Time: 13:09:20
(UTC+00:00)

SL-16 R/B - Pass Details

Date: 14 April 2024
Orbit: 985 x 1006 km, 99.7° (Epoch: 26 May)

Event Time Altitude Azimuth Distance (km) Brightness Sun altitude
Exits shadow 00:51:38 12° 204° (SSW) 2,622 4.2 -12.4°
Maximum altitude 00:56:46 34° 266° (W) 1,592 3.2 -11.8°
Drops below altitude 10° 01:02:22 10° 329° (NNW) 2,780 4.9 -11.1°
Sets 01:05:08 0° 339° (NNW) 3,737 5.7 -10.8°
